This is the latest recevied weather packets stored in our database for station/object N0QV. If no packets are shown the sender has not sent any weather packets the latest 10 day(s).
| Time | Temp. | Humidity | Pressure | Rain* | Wind** | Luminosity | Snow |
|---|---|---|---|---|---|---|---|
| 1777571430 | 10.56° C | 43% | 1018.7 hPa | 0 mm | - | 189 W/m² | - |
| 1777571126 | 10.56° C | 43% | 1018.8 hPa | 0 mm | - | 758 W/m² | - |
| 1777570822 | 10.56° C | 44% | 1018.7 hPa | 0 mm | - | 331 W/m² | - |
| 1777570518 | 10.56° C | 46% | 1018.8 hPa | 0 mm | - | 721 W/m² | - |
| 1777570215 | 10° C | 45% | 1018.8 hPa | 0 mm | - | 132 W/m² | - |
| 1777569910 | 11.11° C | 44% | 1019 hPa | 0 mm | - | 153 W/m² | - |
| 1777569606 | 10.56° C | 43% | 1019.1 hPa | 0 mm | - | 735 W/m² | - |
| 1777569302 | 10° C | 44% | 1019 hPa | 0 mm | - | 734 W/m² | - |
| 1777568999 | 10° C | 44% | 1019 hPa | 0 mm | - | 763 W/m² | - |
| 1777568695 | 10° C | 44% | 1019 hPa | 0 mm | - | 763 W/m² | - |
| 1777568393 | 10.56° C | 43% | 1018.9 hPa | 0 mm | - | 738 W/m² | - |
| 1777568090 | 10° C | 45% | 1019.1 hPa | 0 mm | - | 296 W/m² | - |
| 1777567786 | 10° C | 44% | 1018.9 hPa | 0 mm | - | 778 W/m² | - |
| 1777567483 | 10° C | 45% | 1018.8 hPa | 0 mm | - | 747 W/m² | - |
| 1777567181 | 10° C | 45% | 1019 hPa | 0 mm | - | 744 W/m² | - |
| 1777566878 | 9.44° C | 46% | 1018.9 hPa | 0 mm | - | 737 W/m² | - |
| 1777566576 | 10° C | 45% | 1018.8 hPa | 0 mm | - | 761 W/m² | - |
| 1777566273 | 10° C | 45% | 1019.2 hPa | 0 mm | - | 759 W/m² | - |
| 1777565971 | 9.44° C | 45% | 1019.1 hPa | 0 mm | - | 765 W/m² | - |
| 1777565666 | 9.44° C | 45% | 1019.2 hPa | 0 mm | - | 770 W/m² | - |
| 1777565363 | 9.44° C | 45% | 1019.1 hPa | 0 mm | - | 759 W/m² | - |
| 1777565059 | 9.44° C | 47% | 1019.1 hPa | 0 mm | - | 769 W/m² | - |
| 1777564755 | 8.89° C | 48% | 1019.2 hPa | 0 mm | - | 780 W/m² | - |
| 1777564449 | 8.89° C | 46% | 1018.9 hPa | 0 mm | - | 776 W/m² | - |
| 1777564146 | 9.44° C | 45% | 1018.8 hPa | 0 mm | - | 788 W/m² | - |
* Rain latest hour (hover to see other rain measurements)
** Current wind speed in m/s (hover to see current wind gust speed)